GEFSMW_con_prob3kmehi_138.txt.gz
EHI
23 32 43 47 43 36 31 28 23 18 13 9 5 3 2 0 0 0 0 0 0 0 0 0 0 0 0 0 0 0 0 0 0 0 0 0 0 0 0 0 0 0 0
25 31 41 47 44 37 32 27 21 16 11 8 6 4 2 1 0 0 0 0 0 0 0 0 0 0 0 0 0 0 0 0 0 0 0 0 0 0 0 0 0 0 0
27 31 38 43 41 36 31 26 21 16 12 9 8 6 3 1 1 0 0 0 0 0 0 0 0 0 0 0 0 0 0 0 0 0 0 0 0 0 0 0 0 0 0
28 29 33 37 36 32 27 23 21 18 14 13 12 10 6 2 1 0 0 0 0 0 0 0 0 0 0 0 0 0 0 0 0 0 0 0 0 0 0 0 0 0 0
27 26 27 28 29 28 25 23 21 18 15 16 16 12 8 3 1 0 0 0 0 0 0 0 0 0 0 0 0 0 0 0 0 0 0 0 0 0 0 0 0 0 0
24 22 19 19 20 23 24 24 21 17 15 16 16 13 8 4 1 0 0 0 0 0 0 0 0 0 0 0 0 0 0 0 0 0 0 0 0 0 0 0 0 0 0
18 17 15 14 16 19 21 21 21 18 14 14 15 13 9 4 1 0 0 0 0 0 0 0 0 0 0 0 0 0 0 0 0 0 0 0 0 0 0 0 0 0 0
10 12 13 14 16 17 16 16 17 17 14 13 14 14 10 5 1 0 0 0 0 0 0 0 0 1 0 0 0 0 0 0 0 0 0 0 0 0 0 0 0 0 0
6 8 11 12 13 13 12 11 12 13 13 12 12 12 9 4 1 0 0 0 0 0 0 0 0 0 0 0 0 0 0 0 0 0 0 0 0 0 0 0 0 0 0
5 5 7 8 9 8 8 7 8 9 10 10 9 8 5 3 1 0 0 0 0 0 0 0 0 0 0 0 0 0 0 0 0 0 0 0 0 0 0 0 0 0 0
4 5 6 7 7 6 6 5 5 5 7 8 6 5 3 1 0 0 0 0 0 0 0 0 0 0 0 0 0 0 0 0 0 0 0 0 0 0 0 0 0 0 0
5 6 8 8 7 6 5 4 3 3 6 6 5 4 2 1 0 0 0 0 0 0 0 0 0 0 0 0 0 0 0 0 0 0 0 0 0 0 0 0 0 0 0
5 6 8 8 7 5 4 4 2 2 3 3 3 3 3 1 1 0 0 0 0 0 0 0 1 1 1 1 0 0 0 0 0 0 0 0 0 0 0 0 0 0 0
4 5 6 6 5 3 3 3 2 1 1 1 1 2 3 3 2 1 0 0 1 1 1 1 2 2 2 1 0 0 0 0 0 0 0 0 0 0 0 0 0 0 0
2 2 2 2 2 2 1 2 1 0 0 0 1 1 2 2 2 1 0 0 1 2 2 2 2 1 1 1 0 0 0 0 0 0 0 0 0 0 0 0 0 0 0
1 1 1 1 1 1 0 1 2 1 0 1 1 1 1 1 1 0 0 0 1 1 1 1 1 0 0 0 0 0 0 0 0 0 0 0 0 0 0 0 0 0 0
1 1 2 2 2 1 0 1 2 2 1 1 2 1 0 0 0 0 0 0 0 0 0 0 0 0 0 0 0 0 0 0 0 0 0 0 0 0 0 0 0 0 0
1 1 1 2 2 1 0 0 1 2 2 3 2 1 0 0 0 0 0 0 0 0 0 0 0 0 0 0 0 0 0 0 0 0 0 0 0 0 0 0 0 0 0
1 0 1 1 1 0 0 0 0 1 2 3 2 1 0 0 0 0 0 0 0 0 0 0 0 0 0 0 0 0 0 0 0 0 0 0 0 0 0 0 0 0 0
0 0 1 1 0 0 0 0 0 0 1 1 1 1 0 0 1 1 1 1 1 0 0 0 0 0 0 0 0 0 0 0 0 0 0 0 0 0 0 0 0 0 0
0 0 1 0 0 0 0 0 0 0 1 1 1 0 0 0 1 2 2 2 1 0 0 0 0 0 0 0 0 0 0 0 0 0 0 0 0 0 0 0 0 0 0
0 0 0 0 0 0 0 0 0 0 0 1 1 1 0 0 2 3 3 3 1 0 0 0 0 0 0 0 0 0 0 0 0 0 0 0 0 0 0 0 0 0 0
0 0 0 0 0 0 0 0 0 0 0 1 1 1 0 0 1 2 2 2 1 0 0 0 0 0 0 0 0 0 0 0 0 0 0 0 0 0 0 0 0 0 0
0 0 0 0 0 0 0 0 0 0 0 0 0 0 0 0 1 1 1 1 0 0 0 0 0 0 0 0 0 0 0 0 0 0 0 0 0 0 0 0 0 0 0
0 0 0 0 0 0 0 0 0 0 0 0 0 0 0 0 0 0 0 0 0 0 0 0 0 0 0 0 0 0 0 0 0 0 0 0 0 0 0 0 0 0 0
0 0 0 0 0 0 0 0 0 0 0 0 0 0 0 0 0 0 0 0 0 0 0 0 0 0 0 0 0 0 0 0 0 0 0 0 0 0 0 0 0 0 0

GEFSMW_con_prob3kmehi_144.txt.gz
EHI
36 42 47 48 50 53 53 49 45 43 42 39 34 25 17 13 12 10 5 2 0 0 0 0 0 0 0 0 0 0 0 0 0 0 0 0 0 0 0 0 0 0 0
35 42 50 52 53 55 53 47 43 43 42 40 35 26 17 12 11 9 6 2 1 0 0 0 0 0 0 0 0 0 0 0 0 0 0 0 0 0 0 0 0 0 0
30 36 46 53 55 54 50 43 40 41 41 40 36 28 20 15 13 10 7 3 1 2 1 1 0 0 0 0 0 0 0 0 0 0 0 0 0 0 0 0 0 0 0
23 28 37 46 48 46 42 38 37 39 39 37 34 29 23 18 14 12 9 5 4 3 3 2 1 1 0 0 0 0 0 0 0 0 0 0 0 0 0 0 0 0 0
21 24 30 36 37 34 32 32 34 37 37 34 33 29 23 18 14 13 11 9 6 4 3 4 3 2 1 1 1 1 0 1 1 0 0 0 0 0 0 0 0 0 0
26 28 29 30 30 27 24 26 31 35 34 31 30 26 21 18 15 13 12 9 6 3 2 3 3 3 3 3 3 3 2 2 2 1 0 0 0 0 0 0 0 0 0
35 36 34 31 28 25 23 24 29 32 32 30 27 24 20 18 14 12 9 7 4 2 1 1 2 2 2 3 4 4 3 3 3 1 0 0 0 0 0 0 0 0 0
37 37 35 30 26 25 24 23 26 29 30 29 27 23 19 15 11 8 6 5 3 1 1 1 1 1 1 3 4 4 4 4 3 1 0 0 0 0 0 0 0 0 0
28 29 30 26 23 23 21 19 20 24 27 27 25 21 16 12 9 6 6 4 3 2 1 0 0 1 2 3 5 5 5 4 4 3 1 0 1 1 0 0 1 1 1
20 22 24 24 24 22 18 15 16 19 22 23 21 17 13 9 7 7 7 6 5 4 3 1 1 2 3 6 8 9 6 4 3 3 2 1 2 3 2 2 3 3 2
18 20 21 24 25 22 18 16 16 17 19 20 19 16 12 7 7 8 8 7 7 8 6 3 3 3 5 7 9 10 8 5 3 2 1 2 4 4 5 5 4 4 3
21 21 21 24 25 22 19 17 16 15 16 15 15 14 11 8 8 9 8 6 7 9 8 6 5 4 5 8 9 10 10 8 5 3 2 3 3 4 4 4 3 3 3
26 25 24 25 25 23 19 17 14 12 11 10 11 10 8 8 8 8 6 6 6 8 7 6 5 5 6 7 9 11 11 10 8 6 4 3 2 2 2 2 1 1 2
27 27 26 25 26 25 21 17 14 9 7 6 7 6 6 7 8 7 6 6 7 7 6 5 5 5 5 6 8 9 9 8 7 6 5 3 1 1 1 0 0 1 1
23 24 23 22 23 23 19 15 12 8 5 4 4 4 6 7 8 7 6 6 6 5 4 4 4 4 3 3 4 5 5 4 4 5 4 2 0 0 0 0 1 1 1
18 19 18 16 15 14 12 9 8 6 5 3 3 4 6 7 6 5 6 5 4 4 3 3 3 2 1 1 1 1 2 1 2 3 3 1 0 0 0 0 0 0 1
15 15 15 13 11 9 6 4 3 4 4 3 3 5 6 6 5 5 5 4 3 3 3 2 1 1 0 0 0 0 0 0 1 2 2 2 1 0 0 0 0 0 0
14 14 14 13 10 8 6 4 3 3 4 4 5 7 7 6 5 5 4 3 2 2 2 1 0 0 0 0 0 0 0 0 0 1 1 2 1 0 0 0 0 0 0
14 13 11 10 10 9 8 6 5 4 4 6 8 8 8 7 6 5 3 3 3 2 1 1 1 1 0 0 0 0 0 0 0 0 0 1 1 0 0 0 0 0 0
14 12 9 8 9 9 7 5 5 4 2 4 6 6 7 7 6 4 4 4 4 2 1 1 1 1 0 0 0 0 0 0 0 0 0 0 0 0 0 0 0 0 0
10 10 9 9 9 8 5 3 3 2 1 1 2 3 5 6 5 5 4 4 3 2 1 1 1 0 0 0 0 0 0 0 0 0 0 0 0 0 0 0 0 0 0
7 9 10 9 8 6 4 2 1 1 1 0 0 2 5 5 5 5 5 4 3 2 1 1 2 1 1 0 0 0 0 0 0 0 0 0 0 0 0 0 0 0 0
6 8 10 9 7 5 3 2 1 1 2 2 2 4 5 6 5 5 4 3 3 3 3 3 3 2 1 0 0 0 0 0 0 0 0 0 0 0 0 0 0 0 0
6 8 10 10 8 5 3 2 3 3 4 4 5 6 6 5 4 2 2 2 2 2 3 3 2 2 1 0 0 0 0 0 0 0 0 0 0 0 0 0 0 0 0
4 5 7 7 6 4 3 3 4 5 5 6 6 6 4 2 1 0 0 1 1 1 1 1 1 1 0 0 0 0 1 0 0 0 0 0 0 0 0 0 0 0 0
2 2 3 3 3 3 3 3 4 5 5 5 5 4 2 1 0 0 0 0 0 0 0 0 0 0 0 0 0 0 1 0 0 0 0 0 0 0 0 0 0 0 0

GEFSMW_con_prob3kmehi_150.txt.gz
EHI
75 80 82 85 90 93 92 89 87 83 76 68 60 53 48 45 43 42 40 35 29 25 18 16 22 22 20 17 14 14 12 7 4 2 0 1 2 3 3 2 1 1 0
77 81 85 86 90 93 91 87 85 81 73 66 61 55 48 44 41 43 43 35 28 24 18 17 21 21 19 17 16 15 10 5 2 1 0 1 2 2 2 3 3 3 2
80 84 87 87 90 92 89 83 80 76 68 64 62 55 49 43 41 45 45 36 27 23 21 21 22 21 20 20 20 15 8 3 2 1 0 0 1 1 1 3 3 4 5
79 84 87 87 88 88 84 80 77 72 65 62 60 55 47 41 40 45 45 37 29 25 26 26 26 24 23 24 21 15 10 5 2 1 0 0 0 0 0 1 2 3 4
70 78 83 83 81 78 77 78 77 73 66 60 57 52 45 38 37 40 42 38 31 26 27 30 31 30 29 26 21 18 14 9 4 1 0 1 1 1 0 0 0 1 1
60 69 75 73 71 68 69 73 74 70 65 59 55 50 42 36 33 34 37 36 29 25 25 30 35 36 34 29 24 23 19 13 7 3 2 2 3 2 1 0 0 0 0
52 61 67 65 62 62 63 65 65 61 58 57 53 48 42 35 30 29 30 29 25 24 25 29 34 35 32 28 26 26 22 18 13 8 5 4 4 4 3 1 0 0 0
48 54 60 59 56 56 57 57 56 53 52 53 50 46 40 33 27 25 24 23 21 21 25 28 28 26 24 22 23 24 22 20 17 12 9 6 5 5 4 3 2 1 0
48 50 52 52 50 49 47 48 48 47 47 47 45 41 38 32 26 23 21 19 18 18 21 25 24 20 19 19 20 19 18 18 17 13 10 7 5 4 5 6 5 2 0
48 48 48 47 44 41 39 40 41 40 38 38 36 35 33 30 24 21 20 18 17 18 21 24 24 21 19 20 20 17 16 15 14 12 10 7 5 5 6 8 6 3 2
49 49 49 45 40 37 35 35 35 34 33 31 31 32 30 26 22 20 19 19 19 20 23 24 23 20 18 18 19 17 15 13 10 9 10 8 6 6 7 7 6 5 4
52 52 50 46 41 38 35 33 32 31 31 31 32 33 31 27 23 21 21 21 19 18 19 20 18 15 13 13 14 13 11 10 7 6 9 9 7 6 7 6 6 4 3
56 55 53 49 45 42 38 34 32 29 29 32 33 33 31 28 25 22 21 19 16 13 12 12 11 10 9 8 9 8 6 5 4 4 6 6 6 5 4 4 4 2 1
59 57 55 52 48 44 40 37 34 30 29 30 30 29 27 26 24 21 19 16 13 10 8 7 6 6 6 5 5 5 4 3 3 3 3 3 3 2 2 2 2 1 0
51 50 49 49 45 40 38 36 33 31 29 26 24 23 23 24 22 19 17 14 11 9 7 5 4 3 3 2 2 3 3 2 2 1 1 1 0 0 1 1 1 0 0
38 39 41 42 39 35 33 32 30 29 26 22 20 20 21 22 18 15 14 13 10 9 8 6 4 3 2 1 1 2 2 1 1 0 0 0 0 0 0 0 0 0 0
36 36 37 36 34 30 29 27 25 22 21 21 21 21 21 18 15 12 12 11 9 8 7 6 5 4 1 0 0 1 1 0 0 0 0 0 0 0 0 0 0 0 0
40 38 36 32 29 26 24 23 20 16 16 18 20 21 19 16 14 12 11 10 9 8 6 5 5 3 1 0 0 0 0 0 0 0 0 0 0 0 0 0 0 0 1
39 37 33 28 25 23 22 21 17 13 11 12 13 14 14 13 13 13 12 11 9 8 6 4 4 3 1 0 0 0 0 0 0 0 0 0 0 0 0 0 0 0 1
37 34 30 27 25 22 20 16 12 9 7 6 7 8 8 9 10 12 12 11 9 7 6 5 3 3 2 0 0 0 0 0 0 1 0 0 0 0 0 0 0 0 1
32 29 27 27 25 20 15 10 7 5 5 6 7 7 6 6 8 11 12 11 9 7 7 5 3 2 1 0 0 0 0 0 0 0 0 0 0 0 0 0 0 0 0
25 24 25 26 23 17 11 7 5 4 4 6 8 8 7 5 6 8 10 10 9 8 6 4 2 1 0 0 0 0 0 0 0 0 0 0 0 0 0 0 0 0 0
20 20 21 23 20 15 11 9 7 6 5 5 7 8 7 6 5 6 7 8 9 8 5 3 1 0 0 1 0 0 0 0 0 0 0 0 0 0 0 0 0 0 0
15 16 18 18 17 14 12 11 10 8 6 5 6 7 6 5 4 3 3 4 5 5 3 2 1 0 0 0 0 0 0 0 0 0 0 0 0 0 0 0 0 0 0
12 13 14 14 13 12 11 10 9 8 7 6 7 6 5 3 2 1 1 1 1 1 1 1 0 0 0 0 0 0 0 0 0 0 0 0 0 0 0 0 0 0 0
10 10 11 11 11 10 9 8 7 7 6 6 7 7 4 2 1 0 0 0 0 0 0 0 0 0 0 0 0 0 0 0 0 0 0 0 0 0 0 0 0 0 0

GEFSMW_con_prob3kmehi_156.txt.gz
EHI
64 67 73 77 77 73 68 66 64 58 47 36 29 27 22 15 12 11 11 11 12 12 9 6 3 2 1 0 0 0 0 0 0 0 0 0 0 0 0 0 0 0 0
65 68 72 76 76 74 70 65 61 57 46 34 25 22 18 12 9 9 9 9 11 12 9 5 3 2 1 0 0 0 0 0 0 0 0 0 0 0 0 0 0 0 0
64 67 72 75 75 74 70 62 57 52 45 35 25 18 15 11 8 7 8 8 9 10 9 6 4 3 1 0 0 0 0 0 0 0 0 0 0 0 0 0 0 0 0
62 66 72 74 73 71 67 60 53 47 43 38 28 19 14 11 6 5 6 7 8 9 9 7 5 3 1 0 0 0 0 0 0 0 0 0 0 0 0 0 0 0 0
61 65 68 70 70 66 62 57 50 43 38 36 28 17 11 7 3 2 2 4 6 9 11 9 5 3 2 1 0 0 0 0 0 0 0 0 0 0 0 0 0 0 0
57 59 60 61 62 60 56 51 45 37 32 29 23 15 8 4 1 0 0 1 4 8 11 10 6 3 2 1 0 0 0 0 0 0 0 0 0 0 0 0 0 0 0
48 49 50 52 53 51 47 42 37 33 29 25 21 16 10 6 3 1 0 0 2 6 10 10 7 4 3 2 1 0 0 0 0 0 0 0 0 0 0 0 0 0 0
38 39 41 43 43 41 38 35 30 29 29 28 24 19 13 9 6 4 2 1 1 4 7 7 4 3 3 3 2 0 0 0 0 0 0 0 0 0 0 0 0 0 0
32 33 33 33 33 32 32 30 27 26 27 27 26 22 15 11 8 6 4 3 3 3 4 3 2 1 3 3 2 1 0 0 0 0 0 0 0 0 0 0 0 0 0
34 32 28 25 26 27 27 27 25 23 23 23 22 19 14 10 7 5 5 4 4 3 3 2 1 1 2 3 2 1 0 0 0 0 0 0 0 0 0 0 0 0 0
39 34 27 22 22 23 24 24 23 23 21 18 15 12 11 10 8 5 4 4 4 4 3 3 1 0 1 3 2 1 0 0 0 0 0 0 0 0 0 0 0 0 0
40 35 29 23 19 18 21 22 23 21 19 16 12 9 10 10 8 5 3 2 3 3 3 3 2 0 1 2 2 1 0 0 0 0 0 0 0 0 0 0 0 0 0
37 34 29 23 18 16 18 21 21 19 17 15 12 11 10 9 7 4 2 1 1 2 3 2 1 0 0 1 1 0 0 0 0 0 0 0 0 0 0 0 0 0 0
35 31 25 20 18 16 17 19 19 17 16 15 13 12 11 9 5 3 2 1 1 2 2 1 0 0 0 0 0 0 0 0 0 0 0 0 0 0 0 0 0 0 0
32 28 21 18 16 15 14 15 15 13 13 13 13 12 10 7 4 2 2 2 2 2 1 0 0 0 0 0 0 0 0 0 0 0 0 0 0 0 0 0 0 0 0
26 24 20 15 12 10 9 9 9 9 10 11 11 9 8 6 3 2 1 1 2 1 0 0 0 0 0 0 0 0 0 0 0 0 0 0 0 0 0 0 0 0 0
20 19 16 11 8 6 6 6 6 7 8 8 7 7 7 6 5 3 1 0 0 0 0 0 0 0 0 0 0 0 0 0 0 0 0 0 0 0 0 0 0 0 0
20 18 14 10 7 6 5 5 4 3 3 3 3 5 6 6 6 5 2 1 0 0 0 0 0 0 0 0 0 0 0 0 0 0 0 0 0 0 0 0 0 0 0
21 17 12 9 8 6 3 2 1 0 0 0 1 4 5 6 6 5 3 1 0 0 0 0 0 0 0 0 0 0 0 0 0 0 0 0 0 0 0 0 0 0 0
16 13 9 7 6 3 1 1 0 0 0 0 1 3 4 5 5 5 4 2 1 0 0 0 0 0 0 0 0 0 0 0 0 0 0 0 0 0 0 0 0 0 0
11 10 8 6 3 1 0 0 0 0 0 0 1 1 2 3 4 4 4 3 1 0 0 0 0 0 0 0 0 0 0 0 0 0 0 0 0 0 0 0 0 0 0
8 8 7 4 2 1 0 0 0 0 0 0 0 0 1 1 2 3 3 3 2 1 0 0 0 0 0 0 0 0 0 0 0 0 0 0 0 0 0 0 0 0 0
4 5 5 4 3 1 0 0 0 0 0 0 0 0 0 0 1 1 2 3 3 2 1 0 0 0 0 0 0 0 0 0 0 0 0 0 0 0 0 0 0 0 0
1 2 3 4 3 2 1 0 0 0 0 0 0 0 0 0 0 0 1 1 2 2 1 0 0 0 0 0 0 0 0 0 0 0 0 0 0 0 0 0 0 0 0
0 1 1 2 3 2 1 0 1 1 0 0 0 0 0 0 0 0 0 0 1 1 1 0 0 0 0 0 0 0 0 0 0 0 0 0 0 0 0 0 0 0 0
0 0 0 1 1 1 0 0 1 1 1 0 0 0 0 0 0 0 0 0 0 0 0 0 0 0 0 0 0 0 0 0 0 0 0 0 0 0 0 0 0 0 0

GEFSMW_con_prob3kmehi_162.txt.gz
EHI
18 24 34 42 39 30 21 17 13 7 2 2 3 3 1 0 0 0 0 0 1 3 4 3 2 1 0 0 0 0 0 0 0 0 0 0 0 0 0 0 0 0 0
23 28 36 43 44 37 27 22 18 10 5 4 5 3 1 1 1 1 0 1 2 3 4 4 4 2 1 0 0 0 0 0 0 0 0 0 0 0 0 0 0 0 0
30 34 39 44 47 42 34 27 21 14 9 8 8 7 5 3 3 2 1 1 2 3 4 4 4 3 2 1 0 0 0 0 0 0 0 0 0 0 0 0 0 0 0
35 37 38 41 44 41 36 29 21 17 14 12 11 10 7 5 4 3 1 1 1 2 3 4 4 4 3 1 0 0 0 0 0 0 0 0 0 0 0 0 0 0 0
34 35 36 37 37 35 33 28 22 19 17 14 11 9 6 4 3 1 1 0 0 1 2 3 4 4 4 2 1 0 0 0 0 0 0 0 0 0 0 0 0 0 0
31 32 33 33 32 31 32 29 24 19 16 13 10 7 4 3 2 0 0 0 0 0 1 1 1 2 3 3 2 1 0 0 0 0 0 0 0 0 0 0 0 0 0
28 29 29 28 29 32 35 32 25 19 15 12 10 7 4 3 1 0 0 0 0 0 0 0 0 0 1 2 2 1 0 0 0 0 0 0 0 0 0 0 0 0 0
23 24 24 23 26 31 34 33 27 20 16 13 11 8 4 2 1 0 0 0 0 0 0 0 0 0 0 1 1 0 0 0 0 0 0 0 0 0 0 0 0 0 0
19 19 19 19 21 24 27 28 24 18 15 13 11 7 3 0 0 0 0 0 0 0 0 0 0 0 0 0 0 0 0 0 0 0 0 0 0 0 0 0 0 0 0
18 18 17 15 16 18 19 19 17 14 12 11 10 6 3 1 0 0 0 0 1 1 1 0 0 0 0 0 0 0 0 0 0 0 0 0 0 0 0 0 0 0 0
19 18 15 12 12 14 12 10 10 11 9 8 8 6 3 2 1 0 0 0 1 2 1 0 0 0 0 0 0 0 0 0 0 0 0 0 0 0 0 0 0 0 0
18 18 14 10 10 11 9 7 8 9 8 7 7 6 4 3 2 2 1 0 1 1 1 0 0 0 0 0 0 0 0 0 0 0 0 0 0 0 0 0 0 0 0
19 19 14 9 10 11 9 8 8 8 8 8 7 6 4 3 3 3 2 0 0 0 0 0 0 0 0 0 0 0 0 0 0 0 0 0 0 0 0 0 0 0 0
20 18 13 9 10 11 10 10 9 9 8 8 8 6 3 2 2 2 1 0 0 0 0 0 0 0 0 0 0 0 0 0 0 0 0 0 0 0 0 0 0 0 0
18 15 11 9 10 10 10 10 10 9 8 8 7 5 3 1 1 0 0 0 1 0 0 0 0 0 0 0 0 0 0 0 0 0 0 0 0 0 0 0 0 0 0
16 12 9 8 8 8 7 8 7 7 6 6 4 3 2 1 0 0 0 0 1 1 0 0 0 0 0 0 0 0 0 0 0 0 0 0 0 0 0 0 0 0 0
13 10 7 4 4 4 5 4 4 4 4 3 2 1 1 1 0 0 0 1 2 1 0 0 0 0 0 0 0 0 0 0 0 0 0 0 0 0 0 0 0 0 0
10 8 5 2 1 3 4 3 3 3 2 1 0 0 0 0 0 0 0 1 1 1 0 0 0 0 0 0 0 0 0 0 0 0 0 0 0 0 0 0 0 0 0
6 5 3 1 1 2 3 3 3 3 1 0 0 0 0 0 0 0 0 0 0 0 0 0 0 0 0 0 0 0 0 0 0 0 0 0 0 0 0 0 0 0 0
3 2 1 0 1 2 3 3 3 2 1 0 0 0 0 0 1 1 1 1 1 0 0 0 0 0 0 0 0 0 0 0 0 0 0 0 0 0 0 0 0 0 0
2 1 0 0 1 2 2 2 2 1 0 0 0 0 0 0 1 2 2 2 2 1 1 0 0 0 0 0 0 0 0 0 0 0 0 0 0 0 0 0 0 0 0
2 2 1 0 0 1 1 1 1 0 0 0 0 0 0 0 1 1 2 3 3 3 2 1 0 0 0 0 0 0 0 0 0 0 0 0 0 0 0 0 0 0 0
2 2 1 0 0 0 0 0 0 0 0 0 0 0 0 0 0 0 1 1 2 3 3 2 1 0 0 0 0 0 0 0 0 0 0 0 0 0 0 0 0 0 0
1 1 1 0 0 0 0 0 0 0 0 0 0 0 0 0 0 0 0 0 1 2 2 2 1 0 0 0 0 0 0 0 0 0 0 0 0 0 0 0 0 0 0
0 0 0 0 0 0 0 0 0 0 0 0 0 0 0 0 0 0 0 0 0 1 1 1 0 0 0 0 0 0 0 0 0 0 0 0 0 0 0 0 0 0 0
0 0 0 0 0 0 0 0 0 0 0 0 0 0 0 0 0 0 0 0 0 0 0 0 0 0 0 0 0 0 0 0 0 0 0 0 0 0 0 0 0 0 0

GEFSMW_con_prob3kmehi_168.txt.gz
EHI
21 25 26 24 23 25 29 34 34 29 25 21 16 12 8 6 4 3 3 3 4 3 2 1 1 2 4 4 4 5 5 4 3 2 1 0 0 0 0 0 0 0 0
28 31 32 30 29 31 33 34 33 30 26 22 18 15 10 7 5 4 3 3 3 3 2 1 3 5 6 5 5 6 5 4 3 2 1 0 0 0 0 0 0 0 1
31 35 39 40 39 40 39 35 34 34 30 24 20 17 12 8 6 4 3 2 2 3 3 3 5 7 8 7 6 6 5 4 3 3 2 0 0 0 0 0 0 0 1
32 35 41 46 47 46 44 40 39 39 36 28 22 19 13 8 5 3 2 1 1 3 5 6 6 6 7 6 6 5 5 4 4 5 4 2 1 0 0 0 0 1 1
35 38 42 46 46 45 44 44 44 44 41 33 25 19 12 6 3 2 2 3 3 3 5 7 7 6 6 6 5 5 5 6 6 6 6 5 3 2 2 1 1 1 2
38 42 45 45 44 43 44 46 46 46 42 35 25 18 13 7 4 2 4 7 8 6 4 6 8 9 9 7 8 7 6 7 9 9 9 8 5 5 6 4 2 1 1
39 43 46 47 46 44 45 45 46 45 41 34 26 19 15 12 7 4 4 8 11 9 6 5 8 11 11 11 12 10 7 9 12 12 12 10 8 7 8 7 4 1 0
40 40 42 43 43 41 40 40 41 40 37 32 26 20 16 13 8 5 5 7 9 9 7 6 8 11 12 13 16 13 10 11 13 12 11 10 8 7 8 7 6 3 1
37 35 34 35 36 34 33 33 33 32 29 26 22 17 13 11 8 6 5 5 5 5 4 4 6 8 10 13 16 15 13 13 14 13 10 7 7 7 8 9 10 8 5
32 32 32 32 30 28 28 28 27 25 24 22 20 16 13 11 10 8 6 5 5 4 4 4 6 7 8 11 14 14 13 13 13 13 9 6 6 9 10 12 14 13 11
34 36 38 36 30 27 28 29 27 25 23 20 18 15 14 13 11 9 6 6 7 7 7 7 9 8 7 8 10 10 10 10 9 9 8 6 6 9 11 13 14 14 12
44 45 45 40 34 33 34 32 28 24 20 17 14 14 14 14 13 10 8 8 9 10 10 10 11 9 6 6 8 8 8 8 6 5 5 5 6 7 9 10 9 8 7
53 52 49 43 40 39 38 33 27 21 16 14 15 15 16 16 15 11 10 10 10 10 10 9 8 7 5 5 6 7 8 7 5 4 4 5 5 5 5 5 4 3 3
56 53 48 45 43 40 35 29 23 19 17 18 19 19 19 18 15 13 11 11 11 10 9 8 6 5 5 4 4 5 6 6 4 3 3 4 4 3 2 1 2 2 2
54 51 46 44 42 38 31 25 21 20 20 22 21 19 17 16 14 12 11 11 10 10 9 8 7 6 5 4 3 4 4 4 4 4 4 4 2 1 0 0 1 2 3
53 50 46 44 41 36 29 24 21 20 19 20 19 16 13 12 12 11 9 9 9 9 9 9 8 6 4 3 2 2 2 2 3 5 5 4 2 0 0 0 1 1 2
48 47 44 41 37 31 26 23 20 17 15 14 13 10 9 8 8 8 7 6 7 8 8 9 8 6 3 1 1 1 1 1 3 5 6 4 2 1 0 0 0 1 1
43 41 38 35 31 27 25 23 20 16 12 10 7 5 5 5 5 5 4 4 5 7 8 8 7 5 2 1 0 0 0 1 2 4 5 4 3 1 1 1 1 1 1
44 40 34 30 28 26 25 24 22 17 12 7 4 2 3 3 3 3 3 4 5 6 7 6 5 4 2 1 0 0 1 2 3 4 5 5 3 1 1 2 2 1 0
44 39 33 28 26 24 24 24 22 17 10 5 2 1 2 2 3 3 4 5 5 5 5 5 4 3 3 1 0 0 1 2 3 3 3 3 2 1 1 1 1 0 0
35 32 28 26 24 22 22 20 18 12 6 2 0 0 1 1 1 2 4 5 5 4 4 4 3 3 3 2 1 0 1 2 3 3 3 2 1 0 0 0 0 0 0
24 23 22 21 21 19 18 16 12 7 3 1 0 0 0 0 0 1 2 3 3 3 2 2 2 3 3 2 1 0 0 1 2 2 2 1 0 0 0 0 0 0 0
19 19 18 16 14 13 11 9 7 4 3 1 1 0 0 0 0 0 1 1 1 1 1 1 1 2 3 2 1 0 0 0 1 1 1 0 0 0 0 0 0 0 0
15 15 14 11 9 6 5 4 4 3 3 2 1 0 0 0 0 0 0 0 0 0 1 0 0 1 2 2 1 0 0 0 0 0 0 0 0 0 0 0 0 0 0
10 10 9 7 5 4 3 2 3 3 3 2 1 0 0 0 0 0 0 0 0 0 0 0 0 1 1 1 0 0 0 0 0 0 0 0 0 0 0 0 0 0 0
8 7 6 5 4 4 3 2 2 3 3 1 0 0 0 0 0 0 0 0 0 0 0 0 0 0 0 0 0 0 0 0 0 0 0 0 0 0 0 0 0 0 0

GEFSMW_con_prob3kmehi_174.txt.gz
EHI
69 70 70 71 73 74 74 71 66 58 46 37 34 30 24 18 16 22 33 36 28 20 16 14 17 17 14 11 9 11 10 7 5 4 4 5 6 7 9 9 8 7 6
77 75 74 76 78 77 75 71 68 61 51 41 36 31 25 21 18 23 33 36 28 21 16 15 17 16 14 13 13 13 11 6 5 5 5 5 4 5 6 9 10 11 11
84 82 80 82 82 79 74 69 68 65 57 50 43 37 32 26 22 25 31 32 26 19 15 16 16 16 16 17 18 16 12 8 6 7 8 6 5 4 4 6 10 14 14
83 84 84 83 81 76 71 69 69 67 63 57 51 47 40 30 23 25 28 27 21 15 13 14 15 15 16 17 18 16 15 12 9 9 10 10 7 5 4 4 7 11 12
80 83 85 82 78 73 70 70 70 69 67 61 55 50 42 30 23 25 28 26 20 14 12 12 15 17 16 15 15 16 17 16 13 11 11 11 10 8 6 3 3 6 7
80 84 86 81 74 70 70 70 70 70 68 62 54 49 40 30 25 27 29 26 22 19 16 16 19 22 20 17 16 18 19 16 14 13 13 12 12 11 7 3 1 2 3
80 83 85 81 74 71 71 71 71 70 66 59 51 46 39 31 26 27 27 25 23 23 23 23 26 27 24 19 17 19 19 18 17 15 14 12 11 10 8 4 2 1 2
72 75 79 77 72 70 70 70 70 67 63 55 47 42 37 30 26 26 26 25 23 21 23 27 28 27 22 16 15 16 17 20 20 16 14 11 8 7 6 6 4 2 1
60 63 67 68 64 64 65 65 65 63 57 50 43 39 35 30 27 29 28 25 22 20 22 24 25 24 20 16 13 13 16 19 20 17 14 11 9 6 6 8 7 3 1
50 54 58 58 57 57 57 57 57 56 50 44 38 34 31 29 29 29 28 26 23 21 21 20 19 20 21 20 17 15 15 16 16 15 13 12 11 9 8 9 9 6 4
48 53 57 56 53 52 51 51 50 47 41 35 32 29 26 25 25 26 26 25 22 20 19 18 17 18 20 20 18 16 15 14 13 11 10 10 11 10 8 7 7 6 6
57 60 63 61 54 50 50 49 46 40 34 29 28 27 24 22 21 23 22 21 19 16 16 17 17 17 19 19 17 14 14 12 10 8 7 8 9 8 7 5 4 4 5
67 68 70 66 59 54 52 50 45 38 32 28 27 27 25 22 21 21 21 19 16 14 15 17 17 17 17 16 14 12 11 9 7 5 4 4 5 5 4 4 3 3 3
72 73 73 71 65 58 53 49 44 38 32 29 29 27 25 23 21 21 20 19 16 15 15 16 15 14 14 13 12 11 8 5 3 1 1 1 2 2 3 4 3 3 2
74 75 75 74 69 60 53 48 43 38 34 32 29 25 22 21 19 19 19 18 16 14 14 13 12 10 10 8 8 7 6 3 1 0 0 0 0 1 2 2 2 2 2
75 75 75 73 69 60 52 48 44 41 38 34 28 22 19 17 16 16 16 15 13 12 11 11 10 8 6 4 3 4 4 3 2 1 1 0 0 0 1 1 1 0 1
75 75 74 70 66 60 53 48 44 41 39 33 26 20 16 14 13 13 12 11 11 10 10 9 8 7 5 2 1 1 3 3 3 3 2 1 0 0 0 0 0 0 0
76 74 71 66 61 58 53 47 42 39 35 30 23 17 13 12 11 10 8 9 10 10 10 8 7 6 4 2 1 1 2 3 3 3 3 2 1 0 0 0 0 0 0
76 71 66 61 57 54 51 46 42 38 33 27 20 15 13 12 10 8 7 8 10 11 9 7 5 4 3 2 1 0 2 3 3 3 3 3 2 1 1 0 0 0 0
72 66 61 58 55 52 49 46 40 35 29 24 19 16 14 11 9 7 6 7 9 8 6 5 4 3 3 2 1 0 2 3 3 3 2 2 1 0 0 0 0 0 0
66 63 61 59 55 50 47 43 36 29 24 20 17 13 11 8 5 4 3 4 5 4 4 3 2 3 3 2 1 0 1 2 3 3 3 2 1 0 0 0 0 0 0
60 59 58 56 51 45 41 36 28 22 18 15 11 8 6 3 1 1 1 1 1 1 2 1 1 1 2 2 0 0 0 1 2 2 2 1 0 0 0 0 0 0 0
53 51 50 48 43 38 33 26 20 15 12 9 6 3 2 1 0 0 0 0 0 0 0 0 0 1 2 1 0 0 0 0 1 1 1 0 0 0 0 0 0 0 0
43 43 42 40 35 30 25 19 13 10 8 5 3 2 1 0 0 0 0 0 0 0 0 0 0 0 1 1 0 0 0 0 0 0 0 0 0 0 0 0 0 0 0
36 36 34 31 26 22 18 13 8 6 5 3 1 1 1 0 0 0 0 0 0 0 0 0 0 0 0 0 0 0 0 0 0 0 0 0 0 0 0 0 0 0 0
32 31 27 23 20 17 14 9 6 5 3 1 0 0 0 0 0 0 0 0 0 0 0 0 0 0 0 0 0 0 0 0 0 0 0 0 0 0 0 0 0 0 0

GEFSMW_con_prob3kmehi_180.txt.gz
EHI
37 45 57 63 59 50 44 37 30 24 18 14 12 10 8 4 1 1 1 1 1 1 2 2 1 0 0 0 0 1 0 0 1 0 0 0 0 0 0 0 0 0 0
45 49 57 62 60 54 48 41 32 25 20 16 12 9 6 3 2 2 2 1 0 0 1 1 1 1 1 1 1 1 0 0 1 0 0 0 0 0 0 0 0 0 0
52 55 58 60 60 57 50 43 34 25 21 17 12 8 6 4 3 3 2 1 0 0 0 1 1 3 4 3 2 1 1 1 1 0 0 0 0 0 0 0 0 0 0
55 58 59 59 58 56 50 44 37 28 21 15 11 8 7 5 4 3 1 0 0 0 0 0 2 4 5 4 2 2 2 1 1 0 0 0 0 0 0 0 0 0 0
56 58 59 57 55 52 48 44 38 30 22 16 12 10 7 5 3 2 0 0 1 0 0 0 1 3 3 3 1 1 1 1 1 0 0 0 0 0 0 0 0 0 0
57 59 57 55 52 48 45 43 38 30 22 17 15 13 9 6 4 2 1 1 1 0 0 0 1 1 2 2 1 0 0 0 0 0 0 0 0 0 0 0 0 0 0
61 60 56 52 50 46 43 41 39 33 25 21 19 15 11 8 6 3 2 1 1 0 0 1 2 2 2 2 1 0 0 0 0 0 0 1 1 1 1 1 1 0 0
62 60 55 51 49 47 46 44 42 38 31 24 20 16 12 8 5 3 2 2 1 0 0 1 2 3 2 1 0 1 1 1 1 1 1 2 2 2 2 2 2 1 0
57 55 51 47 45 45 46 46 42 38 33 25 19 15 10 6 3 2 1 1 0 0 0 0 2 2 2 0 1 2 2 2 2 2 2 2 2 2 3 3 3 2 1
50 48 43 40 39 39 39 39 35 30 28 24 18 12 8 5 3 2 0 0 1 1 1 1 2 3 2 1 1 2 3 2 2 2 2 1 1 1 1 2 2 2 1
45 41 36 34 33 32 32 30 27 24 22 21 16 12 8 6 4 2 1 1 2 2 2 3 3 3 2 1 1 2 1 1 1 1 1 0 0 0 0 1 1 1 0
42 39 34 31 30 30 29 28 25 21 18 17 15 11 9 6 4 2 2 2 3 3 3 3 2 2 1 0 1 1 0 0 0 0 0 0 0 0 0 0 0 0 0
44 41 35 30 29 29 28 26 24 20 17 14 12 10 8 6 5 4 4 3 3 3 3 2 1 0 0 0 0 0 0 0 0 0 0 0 0 0 0 0 0 0 0
46 43 37 31 29 27 25 23 21 19 16 13 11 10 8 6 6 7 6 4 4 3 3 3 2 1 1 0 0 0 0 0 0 0 0 0 0 0 0 0 0 0 0
46 45 40 34 29 26 22 19 19 18 16 13 11 9 8 8 8 7 5 4 4 4 3 3 3 3 2 1 0 0 0 0 0 0 0 0 0 0 0 0 0 0 0
46 45 43 36 29 25 21 17 17 18 16 13 10 8 8 8 7 5 4 3 3 3 3 3 3 3 2 1 0 0 0 0 0 0 0 0 0 0 0 0 0 0 0
47 45 41 35 29 24 20 18 18 18 16 13 11 9 8 7 6 4 3 2 2 3 3 3 3 3 2 1 0 0 0 0 0 0 0 0 0 0 0 0 0 0 0
46 42 39 34 29 24 21 20 21 19 16 13 12 11 9 7 5 3 3 1 1 2 2 2 2 2 1 0 0 0 0 0 0 0 0 0 0 0 0 0 0 0 0
44 40 37 36 33 27 21 19 19 16 13 11 11 10 9 7 4 2 2 1 0 1 1 1 1 1 0 0 0 0 0 0 0 0 0 0 0 0 0 0 0 0 0
42 40 38 36 33 27 21 17 14 12 10 9 8 8 6 4 2 1 1 0 0 0 0 0 0 0 0 0 0 0 0 0 0 0 0 0 0 0 0 0 0 0 0
42 40 36 30 24 22 20 16 12 9 8 7 5 4 3 1 0 0 0 0 0 0 0 0 0 0 0 0 0 0 0 0 0 0 0 0 0 0 0 0 0 0 0
38 35 30 22 16 17 18 15 11 7 6 5 3 1 1 0 0 0 0 0 0 0 0 0 0 0 0 0 0 0 0 0 0 0 0 0 0 0 0 0 0 0 0
32 29 24 19 15 14 14 11 8 6 5 3 2 1 0 0 0 0 0 0 0 0 0 0 0 0 0 0 0 0 0 0 0 0 0 0 0 0 0 0 0 0 0
27 25 22 18 13 11 9 6 4 4 3 2 1 0 0 0 0 0 0 0 0 0 0 0 0 0 0 0 0 0 0 0 0 0 0 0 0 0 0 0 0 0 0
22 22 19 14 8 5 4 2 1 1 2 1 0 0 0 0 0 0 0 0 0 0 0 0 0 0 0 0 0 0 0 0 0 0 0 0 0 0 0 0 0 0 0
18 17 15 10 4 2 1 1 0 0 1 0 0 0 0 0 0 0 0 0 0 0 0 0 0 0 0 0 0 0 0 0 0 0 0 0 0 0 0 0 0 0 0

GEFSMW_con_prob3kmehi_186.txt.gz
EHI
10 11 14 16 16 12 9 8 7 6 6 6 4 1 0 0 0 0 0 0 0 0 0 0 0 0 0 0 0 0 0 0 0 0 0 0 0 0 0 0 0 0 0
12 13 15 17 17 14 11 10 9 8 6 5 4 1 0 0 0 0 0 0 0 0 0 0 0 0 0 0 0 0 0 0 0 0 0 0 0 0 0 0 0 0 0
16 17 19 21 19 15 13 12 11 9 7 6 4 3 2 1 0 0 0 0 0 0 0 0 0 0 0 0 0 0 0 0 0 0 0 0 0 0 0 0 0 0 0
19 21 24 24 22 18 14 11 10 8 8 7 6 6 6 4 1 1 1 0 0 0 0 0 0 0 0 0 0 0 0 0 0 0 0 0 0 0 0 0 0 0 0
22 24 26 26 24 19 13 9 7 6 7 7 7 7 7 4 2 2 2 1 0 0 0 0 0 0 0 0 0 0 0 0 0 0 0 0 0 0 0 0 0 0 0
24 25 25 26 25 19 12 9 6 5 6 6 6 6 6 5 3 3 3 2 1 0 0 0 0 0 0 0 0 0 0 0 0 0 0 0 0 0 0 1 1 0 0
24 25 25 26 24 19 15 12 8 6 5 6 6 6 6 6 4 3 3 2 1 0 0 0 0 0 0 0 0 0 0 0 0 0 1 1 1 0 1 2 2 1 0
21 23 24 25 23 20 18 14 10 6 6 6 7 6 6 5 4 3 2 1 0 0 0 0 0 0 0 0 0 0 0 0 0 0 0 0 0 0 1 2 2 1 0
19 21 23 23 23 21 17 14 10 6 6 7 7 5 4 4 3 2 1 0 0 0 0 0 0 0 0 0 0 0 0 0 0 0 0 0 0 0 0 1 1 1 0
22 22 21 22 23 20 15 11 8 6 6 6 5 4 3 2 1 1 0 0 0 0 0 0 0 0 0 0 0 0 0 0 0 0 0 0 0 0 0 0 0 0 0
26 24 20 19 20 18 13 10 7 6 6 5 3 2 2 1 0 0 0 0 0 0 0 0 0 0 0 0 0 0 0 0 0 0 0 0 0 0 0 0 0 0 0
27 25 21 18 17 15 12 10 8 5 5 5 3 1 0 0 0 0 0 0 0 0 0 0 0 0 0 0 0 0 0 0 0 0 0 0 0 0 0 0 0 0 0
26 24 20 17 15 13 11 8 6 4 4 6 4 2 0 0 0 0 0 0 0 0 0 0 0 0 0 0 0 0 0 0 0 0 0 0 0 0 0 0 0 0 0
21 19 16 15 14 12 10 8 5 4 4 6 5 3 1 0 0 0 0 0 0 0 0 0 0 0 0 0 0 0 0 0 0 0 0 0 0 0 0 0 0 0 0
19 18 15 13 13 12 11 10 7 6 6 5 4 3 1 1 1 1 0 0 0 0 0 0 0 0 0 0 0 0 0 0 0 0 0 0 0 0 0 0 0 0 0
22 20 16 14 13 13 13 12 11 9 8 7 5 4 4 3 2 1 0 0 0 0 0 0 0 0 1 0 0 0 0 0 0 0 0 0 0 0 0 0 0 0 0
26 22 17 15 13 12 12 12 11 10 8 7 7 8 8 6 4 1 0 0 0 0 0 0 0 0 0 0 0 0 0 0 0 0 0 0 0 0 0 0 0 0 0
26 22 17 13 11 9 9 10 10 9 7 7 8 9 9 8 5 1 0 0 0 0 0 0 0 0 0 0 0 0 0 0 0 0 0 0 0 0 0 0 0 0 0
23 20 15 12 9 7 7 9 10 9 6 6 7 8 8 8 5 1 0 0 0 0 0 0 0 0 0 0 0 0 0 0 0 0 0 0 0 0 0 0 0 0 0
21 20 16 12 9 7 7 9 9 8 6 5 5 6 7 7 4 1 0 0 0 0 0 0 0 0 0 0 0 0 0 0 0 0 0 0 0 0 0 0 0 0 0
20 19 17 13 10 7 6 8 8 7 5 4 4 5 6 5 3 1 0 0 0 0 0 0 0 0 0 0 0 0 0 0 0 0 0 0 0 0 0 0 0 0 0
17 17 15 11 7 4 4 5 6 5 4 3 3 3 4 3 1 0 0 0 0 0 0 0 0 0 0 0 0 0 0 0 0 0 0 0 0 0 0 0 0 0 0
16 15 12 8 4 2 1 2 3 3 3 3 3 3 2 1 0 0 0 0 0 0 0 0 0 0 0 0 0 0 0 0 0 0 0 0 0 0 0 0 0 0 0
16 14 10 6 3 1 0 0 1 1 1 2 2 1 1 0 0 0 0 0 0 0 0 0 0 0 0 0 0 0 0 0 0 0 0 0 0 0 0 0 0 0 0
12 10 6 4 2 1 0 0 0 0 0 1 1 0 0 0 0 0 0 0 0 0 0 0 0 0 0 0 0 0 0 0 0 0 0 0 0 0 0 0 0 0 0
8 6 3 1 1 0 0 0 0 0 0 0 0 0 0 0 0 0 0 0 0 0 0 0 0 0 0 0 0 0 0 0 0 0 0 0 0 0 0 0 0 0 0

GEFSMW_con_prob3kmehi_192.txt.gz
EHI
13 14 14 15 15 14 12 12 16 21 21 17 13 11 9 8 5 2 0 0 0 0 0 0 0 0 0 0 0 0 0 0 0 0 0 0 0 0 0 0 0 0 0
18 19 19 18 18 17 17 16 17 20 22 18 14 11 9 7 5 3 1 1 1 0 0 0 0 0 0 0 0 0 0 0 0 0 0 0 0 0 0 0 0 1 1
22 24 24 23 23 22 22 21 21 21 22 20 15 11 9 7 6 5 4 3 3 1 0 0 0 0 0 0 0 0 0 0 0 0 0 0 0 0 1 1 1 1 2
24 25 26 27 26 24 23 24 24 22 21 19 15 11 9 7 7 7 7 6 5 3 1 1 0 0 0 0 0 0 0 0 1 1 0 1 2 2 3 2 2 2 2
25 25 26 28 27 24 23 25 25 23 20 18 15 12 9 7 7 8 9 8 7 5 4 3 1 1 0 1 1 1 1 2 3 3 2 3 5 6 5 4 3 3 2
25 25 27 30 30 28 27 28 30 27 19 16 15 14 12 10 10 11 11 10 7 6 5 4 3 1 1 1 2 1 1 4 6 6 6 8 10 9 7 5 4 3 3
27 27 29 33 37 38 36 34 34 30 20 15 15 16 15 14 14 14 13 10 7 5 5 4 3 2 1 1 2 2 2 5 8 8 9 11 11 10 8 5 3 2 1
32 32 33 36 41 44 42 37 34 30 21 15 15 15 14 14 15 16 14 11 8 5 5 5 4 3 2 1 2 3 4 6 9 8 9 9 8 8 7 4 2 1 0
31 34 36 37 39 43 42 37 34 31 23 17 15 15 13 13 15 17 15 11 8 6 6 8 7 5 4 4 5 5 5 7 7 7 7 7 6 4 4 3 2 1 1
31 35 38 37 36 37 36 35 34 31 24 18 16 15 15 15 16 17 17 15 12 9 8 8 8 7 7 7 9 8 6 5 4 4 4 5 5 3 3 4 5 4 3
33 36 40 38 36 34 33 32 31 27 23 19 18 19 18 17 16 17 18 17 17 14 11 10 10 10 8 8 8 7 5 3 2 1 1 2 2 3 4 6 6 5 4
34 38 43 43 39 37 35 32 30 27 24 23 24 24 22 19 18 18 17 16 15 13 11 11 11 10 9 7 6 5 3 1 1 1 0 0 1 2 4 5 5 4 3
38 44 51 51 48 45 41 36 34 30 27 26 25 25 24 21 19 18 16 13 11 10 9 9 9 9 8 8 7 5 4 3 3 3 1 0 1 2 2 3 3 2 1
45 51 58 58 56 53 47 41 36 31 27 25 24 23 23 21 19 17 16 13 10 8 7 7 7 7 7 7 7 7 6 6 6 4 2 1 0 1 1 2 2 1 1
51 55 61 64 63 59 51 43 37 33 30 26 23 22 21 19 17 16 15 12 9 8 7 6 5 5 4 4 4 5 5 6 5 4 3 1 0 0 1 1 1 1 1
56 58 63 67 66 60 52 45 39 37 35 31 25 22 19 16 14 14 12 10 8 6 5 4 4 3 3 2 2 2 3 3 4 3 2 1 0 0 0 0 0 0 1
61 60 62 64 61 56 50 45 41 38 36 33 27 23 20 16 13 11 9 7 5 4 3 3 3 3 3 1 0 1 1 2 2 2 1 0 0 0 0 0 0 0 0
64 63 60 57 55 52 48 45 40 36 33 31 27 23 19 15 12 9 7 5 4 3 3 3 3 3 2 1 0 0 0 0 1 0 0 0 0 0 0 0 0 0 0
68 67 61 56 55 51 47 43 39 34 30 28 25 20 16 14 11 9 7 6 5 4 3 3 3 3 2 1 0 0 0 0 0 0 0 0 0 0 0 0 0 0 0
72 70 66 61 57 52 46 42 39 34 30 26 23 19 16 14 12 9 7 6 6 5 4 3 3 3 2 1 0 0 0 0 0 0 0 0 0 0 0 0 0 0 0
73 72 68 62 56 51 46 43 40 35 30 25 22 19 16 13 11 8 7 6 6 6 5 4 3 3 2 1 0 0 0 0 0 0 0 0 0 0 0 0 0 0 0
71 70 65 59 52 47 44 42 38 32 27 23 20 16 13 10 8 7 6 6 6 6 5 4 3 1 1 0 0 0 0 0 0 0 0 0 0 0 0 0 0 0 0
69 66 60 55 48 43 40 38 34 29 24 20 16 12 9 7 6 6 5 4 4 4 4 3 1 0 0 0 0 0 0 0 0 0 0 0 0 0 0 0 0 0 0
63 60 56 51 45 39 36 33 29 26 22 17 12 8 7 7 7 6 4 3 3 3 3 2 1 0 0 0 0 0 0 0 0 0 0 0 0 0 0 0 0 0 0
55 52 49 46 40 35 31 27 23 21 18 14 10 8 7 8 7 6 3 2 2 2 1 1 0 0 0 0 0 0 0 0 0 0 1 1 0 0 0 0 0 0 0
48 47 44 41 38 33 28 22 19 16 13 11 9 8 9 9 7 5 2 1 1 1 0 0 0 0 0 0 0 0 0 0 0 0 1 1 1 0 0 0 0 0 0

GEFSMW_con_prob3kmehi_198.txt.gz
EHI
54 51 46 47 54 61 62 56 46 39 33 29 28 27 25 21 17 16 17 13 6 2 3 4 3 2 2 2 3 3 2 1 1 1 2 1 1 3 6 9 9 7 5
60 60 56 55 62 69 67 59 52 46 38 32 29 26 25 22 17 16 18 14 9 5 5 6 5 3 3 3 3 3 2 1 1 1 2 1 0 1 4 7 9 6 4
66 68 68 67 71 77 74 66 63 56 44 35 31 28 25 21 17 19 21 19 16 12 8 6 6 4 4 3 3 3 4 3 2 3 3 2 1 0 1 3 5 4 3
67 70 72 72 74 77 78 77 73 62 48 37 31 28 26 21 21 23 25 25 24 19 13 11 11 10 7 5 4 5 7 7 5 5 5 4 3 2 1 1 1 2 2
66 69 72 73 71 71 77 81 79 67 51 38 31 28 25 22 23 26 28 30 29 25 21 19 20 19 14 9 9 10 11 10 8 6 6 6 5 4 3 1 0 0 0
65 69 73 72 69 68 71 76 78 70 55 41 32 28 25 23 24 26 29 32 32 30 27 25 26 25 21 16 15 13 12 11 8 6 5 6 5 5 4 3 1 0 0
66 71 73 71 69 67 67 72 74 69 58 44 34 29 27 26 25 25 27 30 29 30 28 27 28 28 25 20 17 15 13 10 7 5 4 4 4 4 5 4 2 0 0
63 67 70 68 65 65 67 70 70 66 58 48 38 32 29 28 25 25 25 25 24 24 26 27 28 28 25 21 16 15 13 10 7 4 3 2 2 3 3 3 1 0 0
55 60 65 65 63 63 66 67 66 63 57 49 39 32 30 28 26 25 25 24 20 19 21 23 24 24 23 20 17 15 13 10 8 5 3 2 2 2 3 2 1 0 0
50 55 60 63 64 64 65 64 64 61 55 47 38 31 30 30 28 26 26 24 20 17 17 19 21 21 21 20 18 15 12 10 9 6 3 2 3 3 4 3 2 1 1
48 53 59 63 65 64 62 61 61 60 56 50 42 35 32 32 30 28 27 25 21 18 17 18 20 19 17 17 15 13 11 9 8 6 4 4 3 4 4 4 5 4 3
50 56 63 67 67 65 61 59 60 60 57 54 50 43 38 35 31 28 26 25 22 19 18 19 18 15 12 12 11 11 9 7 6 7 6 5 4 4 4 5 6 5 4
57 62 70 73 71 68 64 61 59 59 57 55 53 49 44 39 32 27 26 24 21 18 17 17 15 12 9 8 9 10 8 5 5 7 6 4 3 4 4 4 5 4 3
64 68 76 78 76 72 68 64 62 60 59 56 53 50 44 37 31 28 25 23 20 18 16 15 13 10 7 6 7 7 5 4 4 6 5 3 3 3 2 3 3 3 3
69 72 78 81 80 77 72 68 65 63 61 57 53 48 42 34 30 29 26 23 20 18 15 13 10 8 6 4 4 4 4 3 4 5 5 3 2 1 1 1 1 2 3
75 77 80 82 81 79 76 73 70 67 63 57 51 46 41 36 32 30 28 24 20 17 13 10 7 6 5 4 3 3 3 3 3 4 3 1 1 0 0 0 0 1 1
80 82 82 82 81 79 78 76 72 68 63 55 50 46 43 39 35 32 28 23 18 15 11 8 6 6 5 4 3 3 3 4 3 3 2 0 0 0 0 0 0 0 0
84 86 86 83 80 79 78 76 72 67 61 54 48 46 44 40 34 29 24 19 16 12 9 7 6 6 6 3 1 1 3 4 4 3 2 1 0 0 0 0 0 0 0
86 88 87 83 80 79 79 76 71 66 59 51 45 43 41 35 29 24 20 17 15 11 8 6 6 6 6 3 1 1 3 4 5 4 2 1 0 0 0 0 0 0 0
84 85 86 84 82 81 79 75 71 65 56 46 41 37 34 29 23 19 17 16 13 9 7 6 6 6 6 3 1 1 2 4 5 4 1 0 0 0 0 0 1 1 1
82 84 86 86 84 82 79 75 70 63 54 45 39 33 29 24 19 16 16 14 11 7 6 6 6 6 5 3 1 0 1 2 3 2 0 0 0 0 0 0 1 2 2
84 84 84 82 80 79 77 73 68 60 53 46 38 31 27 22 17 17 16 12 8 6 5 4 4 4 3 1 0 0 0 1 1 0 0 0 0 0 0 0 1 1 1
82 81 79 75 73 72 71 69 64 59 52 46 38 31 26 22 19 16 13 9 6 5 4 3 3 3 2 1 0 0 0 0 0 0 0 0 0 0 0 0 0 0 0
74 75 74 70 67 64 63 61 60 55 49 42 36 29 24 21 18 14 9 6 5 3 3 3 3 3 2 1 0 0 0 0 0 0 0 0 0 0 0 0 0 0 0
69 69 68 67 63 59 56 55 53 49 43 36 31 26 20 16 14 10 6 4 2 1 2 2 2 2 1 0 0 0 0 0 0 0 0 0 0 0 0 0 0 0 0
69 67 66 65 62 56 53 52 49 44 39 32 27 22 17 14 11 8 5 2 1 0 1 1 1 1 0 0 0 0 0 0 0 0 0 0 0 0 0 0 0 0 0

GEFSMW_con_prob3kmehi_204.txt.gz
EHI
31 36 43 45 39 33 28 25 22 17 11 7 5 3 2 1 0 1 0 0 0 0 0 0 0 0 0 0 0 0 0 0 0 0 0 0 0 0 0 0 0 0 0
39 45 50 49 45 38 31 26 24 20 15 11 7 4 2 1 1 1 0 0 0 0 0 0 0 0 0 0 0 0 0 0 0 0 0 0 0 0 0 0 0 0 0
52 56 57 53 51 46 37 29 25 22 18 13 8 6 5 3 2 1 0 0 0 0 0 0 0 0 0 0 0 0 0 0 0 0 0 0 0 0 0 0 0 0 0
58 60 59 56 53 49 42 35 28 21 16 11 8 8 7 5 3 1 0 0 0 0 0 0 0 0 0 0 0 0 0 0 0 0 0 0 0 0 0 0 0 0 0
57 59 59 56 54 52 49 43 32 21 13 9 7 7 6 4 2 0 0 0 0 1 1 1 1 0 0 0 0 0 0 0 0 0 0 0 0 0 0 0 0 0 0
54 55 55 56 57 57 55 48 35 22 13 9 7 6 4 3 1 0 0 0 1 2 2 3 3 2 1 2 1 1 1 1 0 0 0 0 0 0 0 0 0 0 0
52 52 53 55 58 59 57 49 37 25 17 13 9 7 5 4 2 1 0 0 2 3 3 5 7 6 3 2 2 2 2 2 1 0 0 0 0 0 0 0 0 0 0
51 53 54 55 56 57 54 48 38 29 22 17 13 10 9 6 4 2 0 0 1 3 4 6 9 8 4 2 2 3 3 2 1 0 0 0 0 0 0 0 0 0 0
52 56 57 55 53 52 50 46 38 31 27 22 17 15 13 10 7 5 2 0 1 2 4 5 6 5 3 2 2 3 3 2 1 0 0 0 0 0 0 0 0 0 0
53 57 58 54 51 49 47 44 39 34 28 25 21 17 16 13 10 7 4 3 3 3 3 3 2 2 3 3 3 3 3 2 1 0 0 0 0 0 0 0 0 0 0
50 54 56 53 50 49 47 44 40 35 30 27 22 18 16 14 11 8 7 7 6 5 3 3 2 2 3 3 3 3 3 3 1 0 0 0 0 0 0 0 0 0 0
44 49 53 52 49 48 47 44 41 36 33 29 25 20 15 12 9 7 8 9 7 5 5 5 3 3 3 3 3 3 3 3 2 1 0 0 0 0 0 0 0 0 0
41 47 53 54 50 48 48 45 41 39 36 32 27 22 17 11 8 8 9 8 6 5 5 5 4 3 3 3 3 3 3 3 3 2 1 0 0 0 0 0 0 0 0
43 47 54 55 51 50 51 48 44 43 42 36 30 24 19 14 11 10 9 8 6 5 5 4 4 3 3 3 3 3 3 3 3 2 1 0 0 0 0 0 0 0 0
47 50 55 56 53 52 54 52 47 45 45 39 31 26 21 17 14 12 9 6 4 4 5 5 4 4 3 3 3 3 3 3 3 2 1 0 0 0 0 0 0 0 0
55 56 58 59 57 55 56 55 50 47 46 40 33 27 21 18 14 10 6 3 2 2 4 5 5 4 3 3 3 3 3 3 3 3 2 1 0 0 0 0 0 0 0
60 62 63 62 60 57 57 57 53 49 46 40 33 27 22 18 11 6 3 1 0 1 2 3 3 2 3 3 3 3 3 3 3 3 2 1 0 0 0 0 0 0 0
60 63 66 66 64 62 61 59 54 50 45 38 31 25 22 16 9 5 4 2 1 1 1 1 1 2 3 3 3 1 1 2 2 2 1 0 0 0 0 0 0 0 0
58 62 67 69 69 68 66 59 53 47 41 35 27 22 19 14 8 6 5 4 2 1 1 1 2 3 3 3 2 1 0 1 1 1 0 0 0 0 0 0 0 0 0
61 64 67 68 67 66 63 57 50 42 35 30 23 19 15 10 6 6 5 4 3 2 2 3 3 3 3 3 2 1 0 0 0 0 0 0 0 0 0 0 0 0 0
69 69 67 63 60 60 59 52 44 35 28 24 20 16 12 8 5 4 4 3 2 2 3 3 3 3 2 1 1 0 0 0 0 0 0 0 0 0 0 0 0 0 0
74 72 66 58 54 56 55 47 38 30 25 22 19 15 12 9 6 4 3 1 1 2 3 3 3 2 1 0 0 0 0 0 0 0 0 0 0 0 0 0 0 0 0
70 69 63 56 50 50 47 40 33 28 25 22 18 14 12 10 7 4 2 1 1 2 2 2 2 1 0 0 0 0 0 0 0 0 0 0 0 0 0 0 0 0 0
60 61 59 53 47 43 38 32 28 27 25 22 18 14 11 8 6 4 2 1 1 1 1 1 1 0 0 0 0 0 0 0 0 0 0 0 0 0 0 0 0 0 0
54 54 53 50 44 39 34 29 26 25 23 21 19 15 11 6 4 2 1 0 0 0 0 0 0 0 0 0 0 0 0 0 0 0 0 0 0 0 0 0 0 0 0
53 51 50 47 43 39 34 29 26 24 22 20 18 15 11 6 2 1 0 0 0 0 0 0 0 0 0 0 0 0 0 0 0 0 0 0 0 0 0 0 0 0 0

GEFSMW_con_prob3kmehi_210.txt.gz
EHI
5 7 10 10 8 7 7 7 7 6 4 3 3 2 2 2 1 0 0 0 0 0 0 0 0 0 0 0 0 0 0 0 0 0 0 0 0 0 0 0 0 0 0
8 9 11 11 10 9 8 7 8 7 5 3 3 1 1 1 0 0 0 0 0 0 0 0 0 0 0 0 0 0 0 0 0 0 0 0 0 0 0 0 0 0 0
10 11 12 12 12 12 10 9 9 8 6 4 3 1 0 0 0 0 0 0 0 0 0 0 0 0 0 0 0 0 0 0 0 0 0 0 0 0 0 0 0 0 0
10 12 13 14 14 15 13 11 9 8 7 5 3 1 0 0 0 0 0 0 0 0 0 0 0 0 0 0 0 0 0 0 0 0 0 0 0 0 0 0 0 0 0
10 12 14 15 16 17 15 12 9 8 7 5 3 2 1 0 0 0 0 0 0 0 0 0 0 0 0 0 0 0 0 0 0 0 0 0 0 0 0 0 0 0 0
12 13 14 15 17 17 14 12 9 7 6 5 4 3 2 1 1 0 0 0 0 0 0 0 0 0 0 0 0 0 0 0 0 0 0 0 0 0 0 0 0 0 0
14 14 14 16 18 18 14 11 8 5 5 4 4 3 3 3 2 1 0 0 0 0 0 0 0 0 0 0 0 0 0 0 0 0 0 0 0 0 0 0 0 0 0
14 16 16 17 19 20 17 13 9 5 4 5 4 3 3 3 3 2 1 0 0 0 0 0 0 0 0 0 0 0 0 0 0 0 0 0 0 0 0 0 0 0 0
13 16 19 19 20 21 20 17 12 8 7 6 4 3 3 3 3 3 2 1 0 0 0 0 0 0 0 0 0 0 0 0 0 0 0 0 0 0 0 0 0 0 0
14 16 19 20 19 18 19 20 18 13 9 7 5 4 3 3 3 3 3 2 1 0 1 1 0 0 0 0 0 0 0 0 0 0 1 1 0 0 0 0 0 0 0
15 16 18 18 15 15 17 21 21 16 12 9 7 5 4 4 3 3 3 2 1 0 1 1 0 0 0 0 0 0 0 0 1 1 2 1 0 0 0 0 0 0 0
17 17 17 16 15 15 18 22 22 18 15 13 10 8 7 6 4 4 3 2 1 0 0 0 0 1 1 2 1 1 1 1 2 3 2 1 0 0 0 0 0 0 0
20 19 17 15 15 18 21 23 23 20 19 17 15 13 10 9 7 6 6 4 2 1 0 0 0 1 2 3 3 2 2 2 3 3 2 1 0 0 0 0 0 0 0
21 21 20 16 15 20 26 26 25 24 22 21 20 17 13 11 11 10 8 5 3 1 0 0 0 1 2 3 3 3 3 3 3 3 2 1 0 0 0 0 0 0 0
22 23 24 22 20 23 29 30 28 26 25 25 24 19 15 13 12 11 8 5 2 1 0 0 0 0 1 1 2 3 3 3 3 3 2 1 0 0 0 0 0 0 0
26 27 30 30 28 30 34 36 32 28 27 27 24 19 15 12 10 9 7 4 2 1 0 0 0 0 0 0 1 1 2 3 3 3 3 2 1 0 0 0 0 0 0
29 30 31 31 31 33 36 36 34 31 30 28 23 17 13 10 9 8 6 3 1 0 0 0 0 0 0 0 0 0 1 2 3 3 3 2 1 0 0 0 0 0 0
27 26 28 29 30 32 34 32 32 34 33 28 21 15 12 10 9 8 5 1 0 0 0 0 0 0 0 0 1 1 1 2 2 2 2 2 1 0 0 0 0 0 0
25 25 27 30 31 32 34 33 31 32 32 27 20 14 12 9 6 5 4 2 1 0 0 0 0 0 0 1 1 2 2 1 1 1 1 1 1 0 0 0 0 0 0
29 30 32 33 34 35 38 36 31 28 27 24 18 13 10 7 3 2 3 3 2 1 0 0 0 0 0 1 1 1 1 1 0 0 0 0 0 0 0 0 0 0 0
36 37 39 38 37 35 36 36 31 26 23 19 15 12 9 4 1 1 2 3 2 1 0 0 0 0 0 0 0 0 0 0 0 0 0 0 0 0 0 0 0 0 0
41 40 42 43 40 36 36 35 30 24 20 17 14 12 9 6 2 1 2 3 1 0 0 0 0 0 0 0 0 0 0 0 0 0 0 0 0 0 0 0 0 0 0
38 37 40 42 39 36 35 33 27 21 19 17 15 13 10 7 4 2 2 2 1 0 0 0 0 0 0 0 0 0 0 0 0 0 0 0 0 0 0 0 0 0 0
33 33 35 37 34 31 31 28 22 18 18 17 16 13 10 6 3 2 2 1 0 0 0 0 0 0 0 0 0 0 0 0 0 0 0 0 0 0 0 0 0 0 0
30 31 31 30 28 27 25 23 18 15 17 17 16 14 10 5 3 2 1 0 0 0 0 0 0 0 0 0 0 0 0 0 0 0 0 0 0 0 0 0 0 0 0
28 28 27 26 26 24 23 21 16 14 16 17 16 14 9 5 3 2 1 0 0 0 0 0 0 0 0 0 0 0 0 0 0 0 0 0 0 0 0 0 0 0 0

GEFSMW_con_prob3kmehi_216.txt.gz
EHI
1 2 4 5 8 14 16 14 11 12 12 11 9 7 5 4 3 2 2 1 0 0 0 0 0 0 1 1 2 3 2 1 1 1 1 1 1 1 0 0 0 0 0
4 6 8 10 13 17 18 15 14 15 14 11 9 8 5 4 3 1 1 0 0 0 0 0 0 1 2 2 3 3 2 1 1 2 2 3 2 1 0 0 1 1 1
10 11 13 15 18 21 20 18 18 19 17 13 10 7 5 4 2 1 1 1 0 1 1 1 1 1 2 3 3 2 2 3 4 4 4 4 4 2 1 1 2 2 3
14 14 17 20 23 23 22 21 23 24 22 17 12 9 6 4 3 3 3 3 1 1 2 3 3 3 3 4 4 2 3 4 5 5 5 5 4 3 2 1 2 2 2
16 16 18 22 23 22 22 24 27 29 29 24 17 13 9 7 5 4 4 4 3 2 2 3 4 5 5 6 6 5 5 6 5 5 6 7 6 5 4 2 1 2 1
17 17 18 21 23 22 21 24 30 35 34 29 22 17 15 12 8 6 5 4 3 2 2 3 3 4 6 7 8 7 6 6 6 6 7 8 10 9 6 3 1 1 1
18 18 20 23 26 26 25 26 33 37 35 30 24 20 17 14 10 7 5 3 3 4 4 4 4 5 5 6 7 7 6 7 7 7 8 10 12 12 9 5 2 0 0
19 20 22 26 29 30 29 30 36 39 36 32 28 22 17 12 9 7 5 3 3 5 6 6 7 7 5 5 5 6 7 8 9 8 9 11 12 12 11 8 5 1 0
21 20 23 27 29 31 31 33 39 41 38 35 32 24 16 10 8 7 5 4 4 4 5 6 7 6 5 4 5 6 7 9 11 11 11 12 12 11 11 9 6 2 1
23 22 24 27 28 31 32 33 38 41 39 38 34 26 18 13 12 10 8 6 5 5 5 6 7 6 4 4 5 5 6 9 11 12 12 11 9 9 9 8 5 3 2
26 28 30 30 29 31 32 32 35 38 38 37 35 30 24 20 17 13 10 9 9 8 8 8 8 7 6 5 4 4 5 6 6 7 7 6 5 5 7 7 6 4 3
31 35 40 38 33 33 34 35 37 39 39 39 38 33 29 26 22 17 13 13 13 12 11 10 9 8 7 5 3 3 3 2 2 2 2 2 2 3 6 6 6 3 2
36 40 47 48 42 40 41 42 43 43 44 45 42 36 31 30 27 23 20 17 16 15 13 11 8 6 4 3 1 1 1 0 0 0 0 0 1 3 5 5 5 4 2
40 44 53 56 53 52 51 49 49 49 50 50 46 40 36 34 32 31 27 22 18 16 14 11 6 3 1 1 0 0 0 0 0 0 0 0 1 1 3 4 4 4 4
41 46 54 60 62 62 59 56 54 55 56 55 53 49 43 38 36 34 29 23 18 16 14 9 4 1 0 0 0 0 0 0 0 0 0 0 0 0 1 1 3 3 2
41 45 53 62 68 68 65 62 60 60 62 63 61 56 50 42 37 33 27 20 16 15 12 7 3 0 0 0 0 0 0 0 0 0 0 0 0 0 0 0 1 1 0
42 45 51 60 67 71 69 65 63 64 66 67 63 57 51 44 37 31 26 20 15 13 10 7 3 1 1 0 0 0 1 1 1 0 0 0 0 0 0 0 0 0 0
44 48 52 57 63 68 69 67 65 65 66 65 60 54 48 43 38 34 28 21 16 13 10 7 4 3 2 1 0 1 2 2 1 0 0 0 0 0 0 0 0 0 0
47 51 54 56 61 65 68 70 68 66 65 61 56 51 45 40 38 35 29 21 16 14 11 8 6 5 4 2 0 1 1 1 1 0 0 0 0 0 0 0 0 0 0
51 53 54 58 63 66 69 72 72 69 63 58 54 50 44 38 35 33 28 20 15 14 12 9 7 6 4 2 0 0 0 0 0 0 0 0 0 0 0 0 0 0 0
53 52 55 61 66 67 69 72 72 68 61 56 53 50 43 35 31 30 27 20 15 13 11 10 8 6 3 1 0 0 0 0 0 0 0 0 0 0 0 0 0 0 0
54 51 53 60 65 65 67 69 69 65 58 54 53 50 42 34 29 28 25 19 16 13 11 10 9 6 2 0 0 0 0 0 0 0 0 0 0 0 0 0 0 0 0
53 49 47 52 58 59 61 63 64 61 55 50 49 46 40 33 29 26 23 18 14 12 11 10 9 6 2 0 0 0 0 0 0 0 0 0 0 0 0 0 0 0 0
47 43 41 44 48 51 53 56 58 56 50 46 45 42 38 33 29 26 22 16 12 10 10 10 9 6 3 0 0 0 0 0 0 0 0 0 0 0 0 0 0 0 0
40 37 37 39 42 45 47 49 49 47 44 41 41 39 35 31 27 23 18 12 8 7 7 8 8 5 2 0 0 0 0 0 0 0 0 0 0 0 0 0 0 0 0
36 35 35 36 38 42 45 45 42 40 38 37 38 36 32 28 24 20 14 9 6 4 4 5 5 3 1 0 0 0 0 0 0 0 0 0 0 0 0 0 0 0 0

GEFSMW_con_prob3kmehi_222.txt.gz
EHI
28 30 31 33 38 45 49 46 44 43 36 29 26 21 15 12 14 17 19 17 15 12 9 8 11 10 6 7 10 12 8 5 3 2 1 3 6 9 12 13 11 6 5
36 39 40 39 43 48 52 50 48 45 40 33 28 24 17 14 15 21 24 20 15 13 11 11 11 10 8 9 12 12 8 4 3 2 1 2 4 6 9 12 11 8 7
43 47 50 48 47 51 54 54 54 50 44 37 31 25 21 18 19 26 29 24 16 12 12 13 12 10 10 12 13 12 10 6 2 1 2 2 3 3 5 9 12 11 11
40 47 53 53 51 51 54 59 60 54 47 40 33 28 25 23 24 27 31 26 17 11 11 12 11 10 9 10 10 11 11 9 5 3 3 4 4 3 3 6 8 10 11
36 43 50 54 52 51 55 63 66 61 53 46 39 32 28 26 25 27 29 27 20 14 12 14 13 9 7 7 7 8 10 10 8 6 5 5 5 4 3 4 4 6 8
37 42 49 53 52 49 53 63 68 66 60 52 44 35 28 26 25 25 26 25 22 20 19 19 17 12 8 8 8 8 8 9 10 10 8 7 6 5 5 4 3 4 5
38 44 52 55 53 49 54 64 70 68 62 55 46 38 32 29 27 25 23 21 21 23 23 22 20 14 10 10 11 10 9 10 12 13 11 10 9 8 6 4 3 3 3
38 44 53 56 55 55 62 72 76 70 62 55 48 43 40 34 29 26 23 20 18 20 22 22 18 14 11 11 11 11 11 13 14 13 11 10 10 9 6 4 2 1 1
36 40 47 52 55 62 71 79 81 75 67 60 54 49 46 41 35 31 28 25 21 19 19 19 16 14 12 12 11 11 12 13 13 12 10 10 10 9 5 3 3 3 2
32 36 40 46 54 64 74 80 82 78 72 67 60 55 53 49 44 39 36 33 28 23 19 18 17 15 13 12 11 10 11 12 12 11 10 10 10 8 5 4 5 6 6
31 36 41 46 55 64 73 79 81 78 74 69 65 62 61 58 52 47 42 37 32 26 22 20 19 16 13 12 10 8 8 9 10 10 9 9 8 7 5 6 7 7 7
37 43 50 54 60 66 72 78 79 76 74 72 70 69 67 65 60 53 45 39 34 30 27 25 21 16 14 12 9 7 7 8 9 9 8 6 5 5 5 6 7 7 6
44 50 59 66 69 71 74 76 75 75 75 75 75 74 72 70 66 59 51 45 41 36 31 27 22 17 14 11 9 6 6 8 8 7 6 4 3 3 4 4 5 6 6
49 56 68 77 79 78 77 75 73 73 76 77 78 78 75 73 69 62 55 52 48 42 34 27 21 15 12 10 7 6 6 6 6 5 5 4 3 3 3 3 4 5 6
53 61 73 83 85 81 76 73 71 73 76 78 79 79 76 72 66 59 54 52 50 43 35 27 19 12 8 7 6 5 6 6 6 5 5 4 3 2 2 2 3 4 5
57 63 75 85 88 83 76 74 74 75 76 77 78 78 75 67 60 53 50 49 46 41 35 29 20 11 6 4 3 5 6 6 7 7 7 4 1 1 0 1 1 2 3
63 66 75 85 88 83 79 78 78 77 76 76 77 77 73 64 55 49 46 44 42 38 35 30 22 13 7 2 1 3 5 6 7 7 6 3 1 0 0 0 0 0 1
68 68 70 76 80 79 79 79 79 78 79 79 78 77 74 65 54 46 43 42 38 34 33 30 25 17 8 3 1 2 4 6 6 6 6 5 3 1 0 0 0 0 0
68 65 63 65 70 73 77 80 81 81 82 80 78 76 75 67 55 46 42 39 35 32 30 28 25 18 9 3 1 1 4 6 6 6 6 5 3 1 0 0 0 0 0
61 59 58 62 68 72 76 79 80 80 80 77 75 75 75 66 54 46 41 36 32 29 27 26 23 17 10 5 1 2 5 6 6 6 6 4 2 0 0 0 0 0 0
54 55 58 65 71 73 74 75 74 74 74 72 70 71 69 62 52 46 41 36 31 28 26 25 22 17 13 7 2 1 4 6 6 6 6 4 1 0 0 0 0 0 0
50 54 60 66 69 70 70 70 70 70 69 68 65 63 60 56 50 45 42 40 34 28 26 25 23 18 14 8 3 1 2 3 5 5 4 2 0 0 0 0 0 0 0
49 52 57 62 66 67 66 67 69 69 67 64 60 55 54 54 50 45 44 42 35 29 27 26 23 18 14 10 4 1 0 1 3 3 2 0 0 0 0 0 0 0 0
47 49 53 58 64 65 64 65 68 68 65 59 54 51 51 52 50 46 43 39 33 29 27 26 23 19 15 11 6 3 1 1 1 1 0 1 1 0 0 0 0 0 0
44 47 51 56 59 61 61 61 63 64 62 56 50 47 46 46 47 44 38 32 27 24 23 22 21 18 14 10 6 3 2 1 0 0 0 1 1 0 0 0 0 0 0
42 46 50 52 54 56 57 57 58 60 60 55 49 44 41 42 44 41 34 26 20 17 15 17 17 15 11 6 3 2 1 1 0 0 0 1 1 0 0 0 0 0 0

GEFSMW_con_prob3kmehi_228.txt.gz
EHI
17 21 23 22 19 16 12 10 9 8 8 8 7 5 4 6 7 6 5 4 4 3 2 0 0 0 0 0 0 0 0 0 0 0 0 0 0 0 0 0 0 0 0
20 23 25 24 23 21 16 14 14 13 11 9 7 5 4 5 6 6 5 4 4 4 2 1 0 0 0 0 0 0 0 0 0 0 0 0 0 0 0 0 0 0 0
24 27 28 29 30 28 23 20 21 22 18 12 9 7 6 5 5 5 5 5 5 4 3 1 1 1 1 0 0 0 0 0 0 0 0 0 0 0 0 0 0 0 0
26 29 32 36 37 34 29 26 26 27 25 19 14 11 9 6 4 4 5 5 5 4 4 3 2 3 3 1 1 0 0 0 0 0 0 0 0 0 0 0 0 0 0
26 28 33 39 40 37 32 29 29 30 28 24 19 15 12 7 4 4 4 4 4 5 6 5 5 5 5 4 3 1 1 1 1 0 0 0 0 0 0 0 0 0 0
25 26 30 37 43 43 39 34 34 33 30 25 21 17 14 10 8 7 5 4 5 5 7 7 7 6 6 6 5 3 2 2 2 1 0 0 1 1 1 0 0 0 0
22 23 26 34 44 49 47 44 41 37 33 28 22 19 17 15 13 12 9 7 6 6 7 7 6 6 6 8 8 5 4 3 3 2 1 1 2 3 2 1 1 0 0
19 20 23 32 44 51 52 51 47 42 37 33 27 22 19 18 17 15 12 9 6 6 5 5 4 4 6 8 9 7 5 4 3 3 2 2 3 4 4 3 2 1 0
22 23 23 28 40 48 50 52 51 45 41 38 33 26 21 20 20 18 13 8 5 5 4 3 3 4 6 8 9 8 7 5 4 3 3 4 5 5 4 3 2 1 1
27 27 26 27 32 42 49 53 52 47 43 41 37 31 26 24 23 20 14 8 5 6 6 5 4 6 7 8 8 8 6 5 5 4 4 5 5 3 2 1 1 1 0
29 29 29 29 31 40 51 55 53 50 46 42 39 36 32 28 23 18 15 10 7 7 8 7 5 5 5 5 5 5 5 4 4 3 3 3 2 1 0 0 0 0 0
32 32 32 33 35 41 50 56 55 53 50 46 44 41 38 31 23 18 16 13 9 7 7 6 4 4 4 3 3 4 3 3 3 3 3 1 0 0 0 0 0 0 0
35 35 34 34 36 41 48 54 56 56 55 54 52 48 43 35 27 22 19 14 9 6 5 5 4 4 4 4 3 3 3 3 3 3 2 1 0 0 0 0 0 0 0
32 34 33 33 35 41 47 51 55 58 60 59 58 54 46 40 34 28 21 14 9 8 7 5 4 4 4 3 3 3 3 3 3 3 2 1 0 0 0 0 0 0 0
31 32 32 33 34 40 47 50 53 58 62 63 61 55 48 43 38 32 24 16 12 12 10 6 4 3 3 2 3 3 3 3 2 1 1 0 0 0 0 0 0 0 0
34 32 33 34 36 41 47 50 53 58 63 66 64 57 51 45 39 33 28 22 18 15 12 7 4 3 1 1 1 2 2 2 1 0 0 0 0 0 0 0 0 0 0
38 35 33 35 38 41 46 50 54 58 63 65 65 60 53 46 39 34 32 27 21 17 13 8 5 3 1 0 0 1 1 1 0 0 0 0 0 0 0 0 0 0 0
41 37 34 35 38 40 44 49 54 58 60 60 61 59 53 44 38 35 34 29 23 21 16 10 5 3 1 0 0 0 0 0 0 0 0 0 0 0 0 0 0 0 0
36 35 33 35 38 41 44 48 53 56 56 54 54 53 49 43 38 35 32 27 24 24 20 14 8 5 2 0 0 0 0 0 0 0 0 0 0 0 0 0 0 0 0
30 32 33 34 38 42 45 48 52 54 54 50 49 48 44 39 36 33 28 24 23 24 23 18 12 7 3 0 0 0 0 0 0 0 0 0 0 0 0 0 0 0 0
31 34 37 37 39 42 45 48 50 50 50 48 46 44 40 35 31 29 25 21 21 23 22 19 14 10 5 1 0 0 0 0 0 0 0 0 0 0 0 0 0 0 0
34 37 40 41 42 43 45 46 47 46 47 47 46 43 38 33 28 26 23 19 19 21 20 17 14 12 8 3 1 0 0 0 0 0 0 0 0 0 0 0 0 0 0
36 38 40 41 43 44 45 45 44 44 46 48 47 42 37 33 27 25 22 18 17 18 17 16 15 13 9 5 2 1 0 0 0 1 0 0 0 0 0 0 0 0 0
34 36 37 37 38 40 41 40 40 41 44 45 43 40 36 31 26 24 21 17 15 15 15 15 15 13 10 7 4 3 1 0 0 0 0 0 0 0 0 0 0 0 0
31 31 31 31 31 31 31 29 30 35 38 38 37 36 35 31 25 21 18 14 11 10 10 10 11 12 10 7 5 3 1 0 0 0 0 0 0 0 0 0 0 0 0
28 28 27 26 25 24 23 21 22 28 34 35 33 34 34 31 26 21 15 10 7 6 6 6 8 9 9 6 3 1 1 0 0 0 0 0 0 0 0 0 0 0 0

GEFSMW_con_prob3kmehi_234.txt.gz
EHI
3 2 2 3 4 4 4 5 5 4 4 3 3 3 2 1 0 0 1 1 1 0 0 0 0 0 0 0 0 0 0 0 0 0 0 0 0 0 0 0 0 0 0
3 3 4 5 5 4 4 4 5 4 4 4 3 3 1 0 0 0 0 0 0 0 0 0 0 0 0 0 0 0 0 0 0 0 0 0 0 0 0 0 0 0 0
3 3 5 6 5 5 5 4 4 4 4 5 4 3 1 0 0 0 0 0 0 0 0 0 0 0 0 0 0 0 0 0 0 0 0 0 0 0 0 0 0 0 0
2 4 5 6 7 7 6 5 4 3 4 6 5 3 1 0 0 0 0 0 0 0 0 0 1 1 1 1 0 0 1 1 1 0 0 0 0 1 1 0 0 0 0
4 5 6 8 9 9 8 6 4 4 5 5 5 3 1 0 0 0 0 0 0 0 0 0 1 2 3 2 1 1 2 2 2 1 0 0 0 1 1 0 0 0 0
5 6 8 10 12 11 9 6 4 3 3 3 4 4 3 2 1 0 0 0 0 0 0 0 1 3 5 4 3 3 3 3 3 2 1 1 0 1 1 0 0 0 0
6 8 11 13 13 12 10 7 5 5 4 3 5 6 6 5 4 2 1 0 0 0 0 0 1 3 5 5 5 5 4 3 3 3 2 1 0 0 0 0 0 0 0
7 8 11 14 14 12 9 7 7 8 8 8 8 8 7 7 6 4 3 1 1 0 0 0 1 2 3 4 4 4 3 2 2 2 2 1 0 0 1 1 1 0 0
7 8 10 12 12 11 8 6 7 9 12 14 14 12 9 8 8 8 6 4 3 2 1 0 0 1 1 2 2 2 1 1 1 1 1 1 1 1 2 2 1 0 0
8 8 9 10 10 10 8 7 7 11 15 17 17 15 12 11 13 12 10 8 6 5 3 1 0 0 0 1 1 1 1 1 1 1 1 2 2 2 3 2 1 0 0
8 7 8 10 9 9 9 9 10 12 16 19 20 19 16 16 17 15 12 9 7 5 4 2 1 0 0 1 1 2 2 2 2 2 2 2 2 2 2 1 0 0 0
6 6 9 11 10 9 10 11 12 15 18 22 24 23 22 21 20 17 14 11 8 5 4 3 2 1 1 2 3 3 3 3 3 3 3 1 0 1 1 0 0 0 0
4 5 8 10 10 9 10 11 14 17 21 25 28 27 24 22 21 18 14 10 7 5 5 4 3 3 3 3 3 3 3 2 2 2 2 1 1 0 0 0 0 0 0
5 5 7 8 8 9 9 12 15 17 21 27 30 28 25 22 20 18 13 8 6 5 5 4 4 3 3 3 3 3 2 1 1 2 3 3 2 1 0 0 0 0 0
6 6 7 7 8 8 10 12 15 17 22 29 30 28 25 21 18 17 14 9 5 4 4 3 3 3 2 2 3 3 2 2 2 2 3 3 2 1 0 0 0 0 0
8 8 7 7 8 10 12 14 15 19 26 32 32 29 25 21 17 16 14 10 7 5 4 4 3 2 1 1 2 3 3 3 3 3 3 2 1 0 0 0 0 0 0
10 9 8 9 9 12 16 17 18 22 29 34 33 29 25 21 17 15 13 11 9 7 7 5 3 1 0 0 1 2 3 3 3 2 2 1 0 0 0 0 0 0 0
11 10 9 10 9 11 16 20 23 26 31 34 33 30 26 21 18 16 13 11 11 10 9 7 5 2 0 0 1 1 1 2 1 1 1 1 0 0 0 0 0 0 0
12 12 13 12 10 11 15 22 26 29 32 35 34 31 28 23 20 19 16 13 13 12 10 9 7 5 2 1 0 0 0 0 0 0 0 0 0 0 0 0 0 0 0
13 13 14 14 14 15 19 25 30 32 35 36 34 31 29 26 23 21 19 17 15 12 9 7 6 6 4 1 0 0 0 0 0 0 0 0 0 0 0 0 0 0 0
10 11 13 15 18 20 24 28 32 33 34 34 32 29 28 27 24 21 19 19 17 14 9 5 4 5 5 2 1 0 0 1 0 0 0 0 0 0 0 0 0 0 0
8 9 12 16 19 21 23 26 29 31 30 29 27 25 24 24 24 21 18 18 18 15 11 6 5 6 5 3 1 0 0 0 0 0 0 0 0 0 0 0 0 0 0
9 9 10 15 18 19 20 22 24 26 26 24 22 22 22 22 22 21 18 18 18 16 13 10 8 8 7 4 2 1 1 0 0 0 0 0 0 0 0 0 0 0 0
12 10 9 11 15 17 18 18 18 20 21 22 21 20 20 21 21 20 18 17 17 16 13 11 10 9 8 5 3 2 2 1 0 0 0 0 0 0 0 0 0 0 0
13 12 10 10 13 15 15 14 13 14 17 19 19 19 19 19 19 17 14 13 13 12 10 9 8 8 7 5 2 1 2 1 0 0 0 0 0 0 0 0 0 0 0
13 12 10 10 12 14 13 11 10 11 13 15 17 18 18 19 18 15 10 7 7 6 6 6 6 6 5 4 1 0 1 1 0 0 0 0 0 0 0 0 0 0 0

GEFSMW_con_prob3kmehi_240.txt.gz
EHI
6 6 5 6 8 11 16 18 17 15 12 8 5 4 3 2 2 1 1 0 0 1 1 1 0 0 0 1 1 1 1 1 0 0 0 0 0 1 1 1 1 0 0
5 6 7 7 9 12 15 18 19 18 15 9 5 4 3 2 1 1 0 0 0 0 0 0 0 0 0 2 3 3 2 1 0 1 0 0 0 0 0 1 1 0 0
4 6 8 9 10 12 14 17 20 21 18 12 6 3 3 2 2 2 2 1 1 0 0 0 1 1 0 1 4 6 5 3 3 4 3 1 0 0 0 0 1 1 1
2 4 7 9 11 12 14 18 22 25 25 20 12 7 5 3 4 4 5 5 4 2 1 1 2 2 1 2 5 8 9 8 7 7 7 5 3 3 2 1 1 2 2
1 1 4 9 12 14 16 20 26 31 33 30 24 18 10 5 5 5 7 8 7 5 3 4 4 4 3 4 6 9 11 11 11 10 10 9 7 6 5 3 2 1 1
0 1 4 9 14 16 18 22 30 37 38 36 34 29 21 13 9 8 9 10 8 8 8 7 7 6 5 6 7 9 10 11 11 11 10 10 9 8 8 6 3 1 1
1 3 6 10 15 18 19 24 32 38 40 39 37 34 30 22 15 13 13 11 9 10 12 12 11 10 8 7 7 8 9 9 9 9 10 10 9 8 9 8 5 1 0
4 7 11 13 16 18 20 25 33 39 40 39 37 35 32 24 18 18 16 14 12 13 15 16 14 13 11 8 7 7 7 7 7 7 8 9 9 8 9 9 6 2 0
6 11 15 16 17 17 20 25 33 39 41 40 39 37 33 27 24 23 22 19 19 18 17 17 17 16 14 11 8 7 7 7 7 7 8 9 9 8 8 9 8 4 1
10 14 19 21 19 17 19 25 31 38 42 42 41 40 38 35 32 31 28 24 23 22 20 19 20 19 16 14 11 9 8 7 7 8 9 10 10 9 8 9 9 7 4
14 16 21 25 24 21 21 25 29 34 39 43 44 44 43 42 41 37 32 28 27 26 23 22 22 19 16 16 15 11 8 6 6 7 8 9 10 9 8 8 9 8 6
17 19 23 28 30 28 29 30 30 32 37 42 45 46 46 47 45 40 34 33 34 30 25 23 22 19 17 17 16 11 7 5 5 5 6 7 8 7 6 6 8 8 8
24 25 28 32 34 36 38 37 34 32 36 42 45 47 48 48 45 39 35 36 35 30 25 24 23 21 19 17 14 10 8 7 5 4 5 6 6 5 5 5 7 8 8
30 32 36 38 40 44 46 44 39 36 37 42 46 48 50 49 46 42 40 39 35 30 27 27 25 23 20 17 13 10 11 10 7 6 6 6 5 4 5 6 7 7 7
34 38 41 43 45 49 51 50 47 43 43 45 47 49 50 50 50 48 45 42 38 33 31 31 28 24 20 16 13 12 12 12 10 8 7 7 6 5 5 5 5 5 5
39 41 44 46 47 48 51 54 55 52 51 50 50 50 50 51 50 48 44 43 42 37 34 34 31 26 20 14 10 10 11 12 12 10 8 7 6 5 5 4 2 2 3
42 42 45 45 43 41 44 49 52 52 53 53 51 49 49 50 48 45 43 43 43 39 37 36 33 27 20 12 6 5 8 12 14 13 10 9 8 8 7 4 2 1 1
41 41 40 39 37 36 36 39 43 47 52 54 51 49 49 50 47 44 42 41 40 37 35 34 32 29 21 11 4 2 6 12 15 14 12 12 11 10 9 7 4 3 2
38 38 35 32 32 32 34 37 43 48 52 52 51 51 50 49 45 41 39 37 35 33 31 30 29 28 22 10 2 2 7 11 14 14 12 11 10 8 7 7 7 6 5
36 36 35 32 31 32 36 41 47 51 51 48 48 49 48 45 42 39 36 34 32 30 28 26 25 24 19 9 1 2 6 10 12 14 13 9 6 3 3 5 8 8 6
34 35 36 35 33 34 37 41 45 47 47 43 42 43 41 37 37 36 35 33 30 27 26 24 21 18 14 7 2 1 4 8 11 13 14 10 3 0 1 2 4 5 4
31 32 33 34 33 34 37 38 38 39 39 38 38 36 33 31 31 33 32 30 27 23 22 22 18 15 11 7 3 1 1 4 8 10 11 8 3 0 0 0 1 1 1
29 29 30 29 28 29 33 34 32 30 32 35 34 31 28 28 29 31 31 28 24 20 18 18 16 14 12 9 5 2 1 1 3 5 5 3 1 0 0 0 0 0 0
26 27 28 26 22 22 26 29 27 25 27 30 31 29 27 27 29 31 30 26 21 18 16 16 16 15 13 10 6 4 3 2 1 1 1 0 0 0 0 0 0 0 0
24 25 25 22 18 17 19 22 23 24 25 25 26 25 24 25 27 27 24 20 17 14 13 15 16 15 13 9 6 4 4 2 1 0 0 0 1 0 0 0 0 1 1
23 22 22 20 16 15 17 19 21 26 27 23 22 22 21 22 23 23 19 13 12 10 9 12 16 15 12 7 4 2 2 1 1 0 0 0 1 0 0 0 1 2 2